Time,TemperatureF,DewpointF,PressureIn,WindDirection,WindDirectionDegrees,WindSpeedMPH,WindSpeedGustMPH,Humidity,HourlyPrecipIn,Conditions,Clouds,dailyrainin,SolarRadiationWatts/m^2,SoftwareType,DateUTC
2013-06-08 00:02:00,52.7,49.5,29.87,WNW,302,0.0,0.0,89,0.00,,OVC100,0.00,0.00,VWS V14.01,2013-06-08 05:02:00,
2013-06-08 00:07:00,52.6,49.5,29.87,WNW,302,0.0,0.0,89,0.00,,OVC100,0.00,0.00,VWS V14.01,2013-06-08 05:07:00,
2013-06-08 00:12:00,52.8,50.0,29.87,WNW,302,0.0,0.0,90,0.00,,OVC100,0.00,0.00,VWS V14.01,2013-06-08 05:12:00,
2013-06-08 00:17:00,52.7,49.8,29.87,WNW,302,0.0,0.0,90,0.00,,OVC100,0.00,0.00,VWS V14.01,2013-06-08 05:17:00,
2013-06-08 00:22:00,52.7,49.8,29.87,WNW,302,0.0,0.0,90,0.00,,OVC100,0.00,0.00,VWS V14.01,2013-06-08 05:22:00,
2013-06-08 00:27:00,52.6,49.8,29.87,WNW,302,0.0,0.0,90,0.00,,OVC100,0.00,0.00,VWS V14.01,2013-06-08 05:27:00,
2013-06-08 00:32:00,52.6,49.8,29.87,WNW,302,0.0,0.0,90,0.00,,OVC100,0.00,0.00,VWS V14.01,2013-06-08 05:32:00,
2013-06-08 00:37:00,52.6,49.8,29.86,WNW,302,0.0,0.0,90,0.00,,OVC100,0.00,0.00,VWS V14.01,2013-06-08 05:37:00,
2013-06-08 00:42:00,52.7,49.8,29.87,WNW,302,0.0,0.0,90,0.00,,OVC100,0.00,0.00,VWS V14.01,2013-06-08 05:42:00,
2013-06-08 00:47:00,52.9,50.0,29.86,WNW,302,0.0,0.0,90,0.00,,OVC100,0.00,0.00,VWS V14.01,2013-06-08 05:47:00,
2013-06-08 00:52:00,52.8,50.0,29.86,WNW,302,0.0,0.0,90,0.00,,OVC100,0.00,0.00,VWS V14.01,2013-06-08 05:52:00,
2013-06-08 00:57:00,52.6,49.8,29.86,WNW,302,0.0,0.0,90,0.00,,OVC100,0.00,0.00,VWS V14.01,2013-06-08 05:57:00,
2013-06-08 01:02:00,52.3,49.5,29.87,WNW,302,0.0,0.0,90,0.00,,CLR,0.00,0.00,VWS V14.01,2013-06-08 06:02:00,
2013-06-08 01:07:00,52.0,49.2,29.87,WNW,302,0.0,0.0,90,0.00,,CLR,0.00,0.00,VWS V14.01,2013-06-08 06:07:00,
2013-06-08 01:12:00,51.8,49.0,29.87,WNW,302,0.0,0.0,90,0.00,,CLR,0.00,0.00,VWS V14.01,2013-06-08 06:12:00,
2013-06-08 01:17:00,51.9,49.1,29.87,WNW,302,0.0,0.0,90,0.00,,CLR,0.00,0.00,VWS V14.01,2013-06-08 06:17:00,
2013-06-08 01:22:00,52.1,49.3,29.87,WNW,302,0.0,0.0,90,0.00,,CLR,0.00,0.00,VWS V14.01,2013-06-08 06:22:00,
2013-06-08 01:27:00,52.2,49.4,29.87,WNW,302,0.0,0.0,90,0.00,,CLR,0.00,0.00,VWS V14.01,2013-06-08 06:27:00,
2013-06-08 01:32:00,51.8,49.0,29.87,WNW,302,0.0,0.0,90,0.00,,CLR,0.00,0.00,VWS V14.01,2013-06-08 06:32:00,
2013-06-08 01:37:00,51.4,48.6,29.86,WNW,302,0.0,0.0,90,0.00,,CLR,0.00,0.00,VWS V14.01,2013-06-08 06:37:00,
2013-06-08 01:42:00,51.4,48.6,29.86,WNW,302,0.0,0.0,90,0.00,,CLR,0.00,0.00,VWS V14.01,2013-06-08 06:42:00,
2013-06-08 01:47:00,51.6,48.8,29.87,WNW,302,0.0,0.0,90,0.00,,CLR,0.00,0.00,VWS V14.01,2013-06-08 06:47:00,
2013-06-08 01:52:00,51.7,48.9,29.87,WNW,302,0.0,0.0,90,0.00,,CLR,0.00,0.00,VWS V14.01,2013-06-08 06:52:00,
2013-06-08 01:57:00,51.5,48.7,29.87,WNW,302,0.0,0.0,90,0.00,,CLR,0.00,0.00,VWS V14.01,2013-06-08 06:57:00,
2013-06-08 02:02:00,51.2,48.4,29.87,WNW,302,0.0,0.0,90,0.00,,CLR,0.00,0.00,VWS V14.01,2013-06-08 07:02:00,
2013-06-08 02:07:00,51.2,48.4,29.87,WNW,302,0.0,0.0,90,0.00,,CLR,0.00,0.00,VWS V14.01,2013-06-08 07:07:00,
2013-06-08 02:12:00,51.3,48.5,29.87,WNW,302,0.0,0.0,90,0.00,,CLR,0.00,0.00,VWS V14.01,2013-06-08 07:12:00,
2013-06-08 02:17:00,51.6,48.5,29.87,WNW,302,0.0,0.0,89,0.00,,CLR,0.00,0.00,VWS V14.01,2013-06-08 07:17:00,
2013-06-08 02:22:00,51.9,48.8,29.87,WNW,302,0.0,0.0,89,0.00,,CLR,0.00,0.00,VWS V14.01,2013-06-08 07:22:00,
2013-06-08 02:27:00,52.2,49.1,29.87,WNW,302,0.0,0.0,89,0.00,,CLR,0.00,0.00,VWS V14.01,2013-06-08 07:27:00,
2013-06-08 02:32:00,52.3,49.2,29.87,WNW,302,0.0,0.0,89,0.00,,CLR,0.00,0.00,VWS V14.01,2013-06-08 07:32:00,
2013-06-08 02:37:00,52.2,49.4,29.86,WNW,302,0.0,0.0,90,0.00,,CLR,0.00,0.00,VWS V14.01,2013-06-08 07:37:00,
2013-06-08 02:42:00,52.3,49.2,29.86,WNW,302,0.0,0.0,89,0.00,,CLR,0.00,0.00,VWS V14.01,2013-06-08 07:42:00,
2013-06-08 02:47:00,52.4,49.3,29.86,WNW,302,0.0,0.0,89,0.00,,CLR,0.00,0.00,VWS V14.01,2013-06-08 07:47:00,
2013-06-08 02:52:00,52.6,49.5,29.86,WNW,302,0.0,0.0,89,0.00,,CLR,0.00,0.00,VWS V14.01,2013-06-08 07:52:00,
2013-06-08 02:57:00,52.7,49.5,29.86,WNW,302,0.0,0.0,89,0.00,,CLR,0.00,0.00,VWS V14.01,2013-06-08 07:57:00,
2013-06-08 03:02:00,52.8,50.0,29.86,WNW,302,0.0,0.0,90,0.00,,SCT075,0.00,0.00,VWS V14.01,2013-06-08 08:02:00,
2013-06-08 03:07:00,52.9,50.0,29.86,WNW,302,0.0,0.0,90,0.00,,SCT075,0.00,0.00,VWS V14.01,2013-06-08 08:07:00,
2013-06-08 03:12:00,52.9,50.0,29.87,WNW,302,0.0,0.0,90,0.00,,SCT075,0.00,0.00,VWS V14.01,2013-06-08 08:12:00,
2013-06-08 03:17:00,52.8,50.0,29.87,WNW,302,0.0,0.0,90,0.00,,SCT075,0.00,0.00,VWS V14.01,2013-06-08 08:17:00,
2013-06-08 03:22:00,52.6,49.8,29.87,WNW,302,0.0,0.0,90,0.00,,SCT075,0.00,0.00,VWS V14.01,2013-06-08 08:22:00,
2013-06-08 03:27:00,52.4,49.6,29.87,WNW,302,0.0,0.0,90,0.00,,SCT075,0.00,0.00,VWS V14.01,2013-06-08 08:27:00,
2013-06-08 03:32:00,52.3,49.5,29.87,WNW,302,0.0,0.0,90,0.00,,SCT075,0.00,0.00,VWS V14.01,2013-06-08 08:32:00,
2013-06-08 03:37:00,52.4,49.6,29.87,WNW,302,0.0,0.0,90,0.00,,SCT075,0.00,0.00,VWS V14.01,2013-06-08 08:37:00,
2013-06-08 03:42:00,52.5,49.7,29.87,WNW,302,0.0,0.0,90,0.00,,SCT075,0.00,0.00,VWS V14.01,2013-06-08 08:42:00,
2013-06-08 03:47:00,52.6,49.5,29.87,WNW,302,0.0,0.0,89,0.00,,SCT075,0.00,0.00,VWS V14.01,2013-06-08 08:47:00,
2013-06-08 03:52:00,52.7,49.8,29.87,WNW,302,0.0,0.0,90,0.00,,SCT075,0.00,0.00,VWS V14.01,2013-06-08 08:52:00,
2013-06-08 03:57:00,52.8,50.0,29.86,WNW,302,0.0,0.0,90,0.00,,SCT075,0.00,0.00,VWS V14.01,2013-06-08 08:57:00,
2013-06-08 04:02:00,52.8,50.0,29.86,WNW,302,0.0,0.0,90,0.00,,OVC100,0.00,0.00,VWS V14.01,2013-06-08 09:02:00,
2013-06-08 04:07:00,52.8,50.0,29.86,WNW,302,0.0,0.0,90,0.00,,OVC100,0.00,0.00,VWS V14.01,2013-06-08 09:07:00,
2013-06-08 04:12:00,52.7,49.8,29.86,WNW,302,0.0,0.0,90,0.00,,OVC100,0.00,0.00,VWS V14.01,2013-06-08 09:12:00,
2013-06-08 04:17:00,52.8,50.0,29.86,WNW,302,0.0,0.0,90,0.00,,OVC100,0.00,0.00,VWS V14.01,2013-06-08 09:17:00,
2013-06-08 04:22:00,52.7,49.8,29.86,WNW,302,0.0,0.0,90,0.00,,OVC100,0.00,0.00,VWS V14.01,2013-06-08 09:22:00,
2013-06-08 04:27:00,52.6,49.8,29.86,WNW,302,0.0,0.0,90,0.00,,OVC100,0.00,0.00,VWS V14.01,2013-06-08 09:27:00,
2013-06-08 04:32:00,52.6,49.8,29.86,WNW,302,0.0,0.0,90,0.00,,OVC100,0.00,0.00,VWS V14.01,2013-06-08 09:32:00,
2013-06-08 04:37:00,52.6,49.5,29.86,WNW,302,0.0,0.0,89,0.00,,OVC100,0.00,0.00,VWS V14.01,2013-06-08 09:37:00,
2013-06-08 04:42:00,52.8,49.7,29.86,WNW,302,0.0,0.0,89,0.00,,OVC100,0.00,0.00,VWS V14.01,2013-06-08 09:42:00,
2013-06-08 04:47:00,52.9,49.8,29.86,WNW,302,0.0,0.0,89,0.00,,OVC100,0.00,0.00,VWS V14.01,2013-06-08 09:47:00,
2013-06-08 04:52:00,53.1,50.0,29.86,WNW,302,0.0,0.0,89,0.00,,OVC100,0.00,0.00,VWS V14.01,2013-06-08 09:52:00,
2013-06-08 04:57:00,53.2,50.0,29.87,WNW,302,0.0,0.0,89,0.00,,OVC100,0.00,0.00,VWS V14.01,2013-06-08 09:57:00,
2013-06-08 05:02:00,53.3,50.2,29.87,WNW,302,0.0,0.0,89,0.00,,OVC100,0.00,0.00,VWS V14.01,2013-06-08 10:02:00,
2013-06-08 05:07:00,53.3,50.2,29.87,WNW,302,0.0,0.0,89,0.00,,OVC100,0.00,0.00,VWS V14.01,2013-06-08 10:07:00,
2013-06-08 05:12:00,53.4,50.2,29.87,WNW,302,0.0,0.0,89,0.00,,OVC100,0.00,0.00,VWS V14.01,2013-06-08 10:12:00,
2013-06-08 05:17:00,53.3,50.2,29.87,WNW,302,0.0,0.0,89,0.00,,OVC100,0.00,0.00,VWS V14.01,2013-06-08 10:17:00,
2013-06-08 05:22:00,53.3,50.2,29.87,WNW,302,0.0,0.0,89,0.00,,OVC110,0.00,0.00,VWS V14.01,2013-06-08 10:22:00,
2013-06-08 05:27:00,53.4,50.2,29.86,WNW,302,0.0,0.0,89,0.00,,OVC110,0.00,0.00,VWS V14.01,2013-06-08 10:27:00,
2013-06-08 05:33:00,53.5,50.3,29.87,WNW,302,0.0,0.0,89,0.00,,OVC110,0.00,0.00,VWS V14.01,2013-06-08 10:33:00,
2013-06-08 05:38:00,53.6,50.4,29.87,WNW,302,0.0,0.0,89,0.00,,OVC110,0.00,5.00,VWS V14.01,2013-06-08 10:38:00,
2013-06-08 05:43:00,53.6,50.4,29.87,WNW,302,0.0,0.0,89,0.00,,OVC110,0.00,7.00,VWS V14.01,2013-06-08 10:43:00,
2013-06-08 05:48:00,53.7,50.5,29.87,WNW,302,0.0,0.0,89,0.00,,OVC110,0.00,12.00,VWS V14.01,2013-06-08 10:48:00,
2013-06-08 05:52:00,53.7,50.5,29.88,WNW,302,0.0,0.0,89,0.00,,OVC110,0.00,9.00,VWS V14.01,2013-06-08 10:52:00,
2013-06-08 05:57:00,53.7,50.5,29.88,WNW,302,0.0,0.0,89,0.00,,OVC110,0.00,7.00,VWS V14.01,2013-06-08 10:57:00,
2013-06-08 06:02:00,53.7,50.5,29.88,WNW,302,0.0,0.0,89,0.00,,OVC085,0.00,7.00,VWS V14.01,2013-06-08 11:02:00,
2013-06-08 06:07:00,53.7,50.8,29.88,WNW,302,0.0,0.0,90,0.00,,OVC085,0.00,11.00,VWS V14.01,2013-06-08 11:07:00,
2013-06-08 06:12:00,53.7,50.8,29.88,WNW,302,0.0,0.0,90,0.00,,OVC085,0.00,18.00,VWS V14.01,2013-06-08 11:12:00,
2013-06-08 06:17:00,53.6,50.7,29.88,WNW,302,0.0,0.0,90,0.00,,OVC085,0.00,32.00,VWS V14.01,2013-06-08 11:17:00,
2013-06-08 06:22:00,53.7,50.8,29.88,WNW,302,0.0,0.0,90,0.00,,OVC085,0.00,33.00,VWS V14.01,2013-06-08 11:22:00,
2013-06-08 06:27:00,53.7,50.5,29.88,WNW,302,0.0,0.0,89,0.00,,OVC085,0.00,35.00,VWS V14.01,2013-06-08 11:27:00,
2013-06-08 06:32:00,53.8,50.6,29.88,WNW,302,0.0,0.0,89,0.00,,OVC085,0.00,51.00,VWS V14.01,2013-06-08 11:32:00,
2013-06-08 06:37:00,53.9,50.7,29.88,WNW,302,0.0,0.0,89,0.00,,OVC085,0.00,65.00,VWS V14.01,2013-06-08 11:37:00,
2013-06-08 06:43:00,53.9,50.7,29.88,WNW,302,0.0,0.0,89,0.00,,OVC085,0.00,70.00,VWS V14.01,2013-06-08 11:43:00,
2013-06-08 06:48:00,54.1,50.9,29.88,WNW,302,0.0,0.0,89,0.00,,OVC085,0.00,74.00,VWS V14.01,2013-06-08 11:48:00,
2013-06-08 06:53:00,54.2,51.0,29.88,WNW,302,0.0,0.0,89,0.00,,OVC085,0.00,74.00,VWS V14.01,2013-06-08 11:53:00,
2013-06-08 06:58:00,54.3,51.1,29.88,WNW,302,0.0,0.0,89,0.00,,OVC085,0.00,69.00,VWS V14.01,2013-06-08 11:58:00,
2013-06-08 07:03:00,54.4,51.2,29.88,WNW,302,0.0,0.0,89,0.00,,BKN110,0.00,72.00,VWS V14.01,2013-06-08 12:03:00,
2013-06-08 07:08:00,54.6,51.4,29.88,WNW,302,0.0,0.0,89,0.00,,BKN110,0.00,88.00,VWS V14.01,2013-06-08 12:08:00,
2013-06-08 07:13:00,54.9,51.7,29.88,WNW,302,0.0,0.0,89,0.00,,BKN110,0.00,88.00,VWS V14.01,2013-06-08 12:13:00,
2013-06-08 07:18:00,55.3,52.1,29.88,WNW,302,0.0,0.0,89,0.00,,BKN110,0.00,88.00,VWS V14.01,2013-06-08 12:18:00,
2013-06-08 07:23:00,55.5,52.3,29.88,WNW,302,0.0,0.0,89,0.00,,BKN110,0.00,88.00,VWS V14.01,2013-06-08 12:23:00,
2013-06-08 07:28:00,55.8,52.6,29.88,WNW,302,0.0,0.0,89,0.00,,BKN110,0.00,88.00,VWS V14.01,2013-06-08 12:28:00,
2013-06-08 07:33:00,56.1,52.9,29.88,WNW,302,0.0,0.0,89,0.00,,BKN110,0.00,105.00,VWS V14.01,2013-06-08 12:33:00,
2013-06-08 07:38:00,56.4,53.5,29.88,WNW,302,0.0,0.0,90,0.00,,BKN110,0.00,116.00,VWS V14.01,2013-06-08 12:38:00,
2013-06-08 07:43:00,56.7,53.8,29.89,WNW,302,0.0,0.0,90,0.00,,BKN110,0.00,111.00,VWS V14.01,2013-06-08 12:43:00,
2013-06-08 07:48:00,57.0,54.1,29.89,WNW,302,0.0,0.0,90,0.00,,BKN110,0.00,109.00,VWS V14.01,2013-06-08 12:48:00,
2013-06-08 07:53:00,57.3,54.4,29.89,WNW,302,0.0,0.0,90,0.00,,BKN110,0.00,118.00,VWS V14.01,2013-06-08 12:53:00,
2013-06-08 07:58:00,57.5,54.6,29.89,WNW,302,0.0,0.0,90,0.00,,BKN110,0.00,132.00,VWS V14.01,2013-06-08 12:58:00,
2013-06-08 08:03:00,57.9,54.7,29.89,WNW,302,0.0,2.0,89,0.00,,BKN100,0.00,151.00,VWS V14.01,2013-06-08 13:03:00,
2013-06-08 08:08:00,58.2,55.0,29.89,WNW,302,0.0,2.0,89,0.00,,BKN100,0.00,163.00,VWS V14.01,2013-06-08 13:08:00,
2013-06-08 08:13:00,58.7,55.2,29.89,WNW,302,0.0,2.0,88,0.00,,BKN100,0.00,202.00,VWS V14.01,2013-06-08 13:13:00,
2013-06-08 08:18:00,59.2,55.3,29.89,East,94,1.0,2.0,87,0.00,,BKN100,0.00,193.00,VWS V14.01,2013-06-08 13:18:00,
2013-06-08 08:23:00,59.7,55.5,29.90,East,88,2.0,3.0,86,0.00,,BKN100,0.00,214.00,VWS V14.01,2013-06-08 13:23:00,
2013-06-08 08:28:00,60.1,54.9,29.89,ENE,65,3.0,3.0,83,0.00,,BKN100,0.00,218.00,VWS V14.01,2013-06-08 13:28:00,
2013-06-08 08:33:00,60.3,54.8,29.89,ESE,111,1.0,4.0,82,0.00,,BKN100,0.00,232.00,VWS V14.01,2013-06-08 13:33:00,
2013-06-08 08:38:00,60.7,55.2,29.89,East,87,0.0,4.0,82,0.00,,BKN100,0.00,248.00,VWS V14.01,2013-06-08 13:38:00,
2013-06-08 08:43:00,61.3,55.8,29.89,East,86,0.0,4.0,82,0.00,,BKN100,0.00,281.00,VWS V14.01,2013-06-08 13:43:00,
2013-06-08 08:48:00,61.6,55.0,29.89,ESE,112,0.0,5.0,79,0.00,,BKN100,0.00,213.00,VWS V14.01,2013-06-08 13:48:00,
2013-06-08 08:53:00,61.7,55.1,29.90,SSE,156,1.0,5.0,79,0.00,,BKN100,0.00,179.00,VWS V14.01,2013-06-08 13:53:00,
2013-06-08 08:58:00,61.9,55.7,29.90,East,92,0.0,5.0,80,0.00,,BKN100,0.00,134.00,VWS V14.01,2013-06-08 13:58:00,
2013-06-08 09:03:00,61.9,55.3,29.90,SE,132,2.0,5.0,79,0.00,,OVC060,0.00,248.00,VWS V14.01,2013-06-08 14:03:00,
2013-06-08 09:08:00,61.9,54.3,29.90,ESE,111,2.0,5.0,76,0.00,,OVC060,0.00,225.00,VWS V14.01,2013-06-08 14:08:00,
2013-06-08 09:13:00,61.9,55.0,29.90,ESE,106,0.0,5.0,78,0.00,,OVC060,0.00,241.00,VWS V14.01,2013-06-08 14:13:00,
2013-06-08 09:18:00,61.8,54.5,29.90,ESE,112,0.0,5.0,77,0.00,,OVC060,0.00,237.00,VWS V14.01,2013-06-08 14:18:00,
2013-06-08 09:23:00,61.9,55.0,29.90,East,85,0.0,5.0,78,0.00,,OVC060,0.00,237.00,VWS V14.01,2013-06-08 14:23:00,
2013-06-08 09:28:00,62.0,54.7,29.90,ESE,105,1.0,5.0,77,0.00,,OVC060,0.00,336.00,VWS V14.01,2013-06-08 14:28:00,
2013-06-08 09:33:00,62.3,55.7,29.90,WNW,290,1.0,3.0,79,0.00,,OVC060,0.00,285.00,VWS V14.01,2013-06-08 14:33:00,
2013-06-08 09:38:00,62.3,54.7,29.90,North,355,1.0,3.0,76,0.00,,OVC060,0.00,285.00,VWS V14.01,2013-06-08 14:38:00,
2013-06-08 09:43:00,62.4,55.1,29.90,NE,40,0.0,4.0,77,0.00,,OVC060,0.00,304.00,VWS V14.01,2013-06-08 14:43:00,
2013-06-08 09:48:00,62.5,54.8,29.91,SE,135,0.0,4.0,76,0.00,,OVC060,0.00,394.00,VWS V14.01,2013-06-08 14:48:00,
2013-06-08 09:53:00,62.6,54.6,29.91,ESE,107,0.0,4.0,75,0.00,,OVC060,0.00,218.00,VWS V14.01,2013-06-08 14:53:00,
2013-06-08 09:58:00,62.5,54.8,29.91,ESE,109,0.0,4.0,76,0.00,,OVC060,0.00,206.00,VWS V14.01,2013-06-08 14:58:00,
2013-06-08 10:03:00,62.4,54.8,29.91,ESE,109,0.0,2.0,76,0.00,,FEW070,0.00,322.00,VWS V14.01,2013-06-08 15:03:00,
2013-06-08 10:08:00,62.8,54.8,29.91,ENE,73,1.0,7.0,75,0.00,,FEW070,0.00,318.00,VWS V14.01,2013-06-08 15:08:00,
2013-06-08 10:13:00,63.0,55.0,29.90,East,84,0.0,7.0,75,0.00,,FEW070,0.00,272.00,VWS V14.01,2013-06-08 15:13:00,
2013-06-08 10:18:00,63.0,55.7,29.90,SE,140,0.0,7.0,77,0.00,,FEW070,0.00,171.00,VWS V14.01,2013-06-08 15:18:00,
2013-06-08 10:23:00,62.9,55.6,29.90,East,93,0.0,7.0,77,0.00,,FEW070,0.00,278.00,VWS V14.01,2013-06-08 15:23:00,
2013-06-08 10:28:00,63.0,55.3,29.90,SE,134,1.0,7.0,76,0.00,,FEW070,0.00,411.00,VWS V14.01,2013-06-08 15:28:00,
2013-06-08 10:33:00,63.2,54.8,29.91,SSE,149,1.0,7.0,74,0.00,,FEW070,0.00,221.00,VWS V14.01,2013-06-08 15:33:00,
2013-06-08 10:38:00,63.6,55.2,29.90,SE,125,4.0,7.0,74,0.00,,FEW070,0.00,914.00,VWS V14.01,2013-06-08 15:38:00,
2013-06-08 10:43:00,63.7,54.5,29.90,East,101,0.0,7.0,72,0.00,,FEW070,0.00,281.00,VWS V14.01,2013-06-08 15:43:00,
2013-06-08 10:48:00,64.4,56.3,29.91,ESE,122,1.0,7.0,75,0.00,,FEW070,0.00,888.00,VWS V14.01,2013-06-08 15:48:00,
2013-06-08 10:53:00,65.2,56.0,29.91,ESE,112,0.0,7.0,72,0.00,,FEW070,0.00,1093.00,VWS V14.01,2013-06-08 15:53:00,
2013-06-08 10:58:00,65.4,55.8,29.91,SSE,150,0.0,7.0,71,0.00,,FEW070,0.00,545.00,VWS V14.01,2013-06-08 15:58:00,
2013-06-08 11:03:00,65.6,56.7,29.91,SSE,151,0.0,4.0,73,0.00,,SCT055,0.00,1123.00,VWS V14.01,2013-06-08 16:03:00,
2013-06-08 11:08:00,66.0,57.9,29.91,West,263,0.0,4.0,75,0.00,,SCT055,0.00,670.00,VWS V14.01,2013-06-08 16:08:00,
2013-06-08 11:13:00,66.2,56.5,29.91,NNE,30,1.0,4.0,71,0.00,,SCT055,0.00,573.00,VWS V14.01,2013-06-08 16:13:00,
2013-06-08 11:18:00,66.0,56.0,29.91,East,96,0.0,4.0,70,0.00,,SCT055,0.00,468.00,VWS V14.01,2013-06-08 16:18:00,
2013-06-08 11:23:00,66.4,57.5,29.91,SE,142,0.0,5.0,73,0.00,,SCT055,0.00,870.00,VWS V14.01,2013-06-08 16:23:00,
2013-06-08 11:28:00,66.9,56.4,29.91,SW,221,1.0,5.0,69,0.00,,SCT055,0.00,390.00,VWS V14.01,2013-06-08 16:28:00,
2013-06-08 11:33:00,66.5,56.4,29.91,SE,126,0.0,3.0,70,0.00,,SCT055,0.00,506.00,VWS V14.01,2013-06-08 16:33:00,
2013-06-08 11:38:00,66.7,55.8,29.91,ESE,112,0.0,3.0,68,0.00,,SCT055,0.00,483.00,VWS V14.01,2013-06-08 16:38:00,
2013-06-08 11:43:00,67.1,56.2,29.91,ESE,108,0.0,4.0,68,0.00,,SCT055,0.00,1002.00,VWS V14.01,2013-06-08 16:43:00,
2013-06-08 11:48:00,67.2,57.1,29.91,NNW,342,1.0,4.0,70,0.00,,SCT055,0.00,1085.00,VWS V14.01,2013-06-08 16:48:00,
2013-06-08 11:53:00,67.5,56.2,29.90,NE,35,0.0,4.0,67,0.00,,SCT055,0.00,863.00,VWS V14.01,2013-06-08 16:53:00,
2013-06-08 11:58:00,67.6,57.9,29.90,ESE,116,3.0,5.0,71,0.00,,SCT055,0.00,951.00,VWS V14.01,2013-06-08 16:58:00,
2013-06-08 12:03:00,67.6,57.1,29.90,ESE,106,0.0,4.0,69,0.00,,OVC095,0.00,875.00,VWS V14.01,2013-06-08 17:03:00,
2013-06-08 12:08:00,67.9,55.7,29.90,SE,132,2.0,5.0,65,0.00,,OVC095,0.00,786.00,VWS V14.01,2013-06-08 17:08:00,
2013-06-08 12:13:00,67.7,56.4,29.90,NE,37,1.0,5.0,67,0.00,,OVC095,0.00,635.00,VWS V14.01,2013-06-08 17:13:00,
2013-06-08 12:18:00,67.7,56.4,29.90,SE,132,0.0,5.0,67,0.00,,OVC095,0.00,986.00,VWS V14.01,2013-06-08 17:18:00,
2013-06-08 12:23:00,67.7,57.2,29.90,ESE,121,0.0,5.0,69,0.00,,OVC095,0.00,759.00,VWS V14.01,2013-06-08 17:23:00,
2013-06-08 12:28:00,67.8,56.5,29.89,ESE,111,3.0,5.0,67,0.00,,OVC095,0.00,677.00,VWS V14.01,2013-06-08 17:28:00,
2013-06-08 12:33:00,67.5,56.6,29.89,ESE,115,1.0,5.0,68,0.00,,OVC095,0.00,392.00,VWS V14.01,2013-06-08 17:33:00,
2013-06-08 12:38:00,67.7,58.0,29.89,NNW,346,1.0,5.0,71,0.00,,OVC095,0.00,441.00,VWS V14.01,2013-06-08 17:38:00,
2013-06-08 12:43:00,68.3,57.3,29.89,ESE,117,0.0,5.0,68,0.00,,OVC095,0.00,731.00,VWS V14.01,2013-06-08 17:43:00,
2013-06-08 12:48:00,68.8,58.2,29.89,South,169,0.0,5.0,69,0.00,,OVC095,0.00,1143.00,VWS V14.01,2013-06-08 17:48:00,
2013-06-08 12:53:00,69.2,57.8,29.89,SE,125,0.0,5.0,67,0.00,,OVC095,0.00,1143.00,VWS V14.01,2013-06-08 17:53:00,
2013-06-08 12:58:00,69.2,57.4,29.88,East,86,0.0,5.0,66,0.00,,OVC095,0.00,390.00,VWS V14.01,2013-06-08 17:58:00,
2013-06-08 13:03:00,68.9,57.9,29.88,SSE,161,0.0,3.0,68,0.00,,BKN100,0.00,738.00,VWS V14.01,2013-06-08 18:03:00,
2013-06-08 13:08:00,68.8,57.4,29.88,SE,131,1.0,4.0,67,0.00,,BKN100,0.00,480.00,VWS V14.01,2013-06-08 18:08:00,
2013-06-08 13:13:00,68.6,57.2,29.88,West,273,0.0,4.0,67,0.00,,BKN100,0.00,411.00,VWS V14.01,2013-06-08 18:13:00,
2013-06-08 13:18:00,68.5,57.1,29.88,SE,124,2.0,5.0,67,0.00,,BKN100,0.00,691.00,VWS V14.01,2013-06-08 18:18:00,
2013-06-08 13:23:00,68.3,56.9,29.88,East,98,0.0,5.0,67,0.00,,BKN100,0.00,374.00,VWS V14.01,2013-06-08 18:23:00,
2013-06-08 13:28:00,68.2,56.8,29.88,East,80,3.0,5.0,67,0.00,,BKN100,0.00,439.00,VWS V14.01,2013-06-08 18:28:00,
2013-06-08 13:33:00,68.2,56.4,29.88,ESE,112,4.0,5.0,66,0.00,,BKN100,0.00,394.00,VWS V14.01,2013-06-08 18:33:00,
2013-06-08 13:38:00,68.1,57.2,29.87,SE,132,0.0,5.0,68,0.00,,BKN100,0.00,548.00,VWS V14.01,2013-06-08 18:38:00,
2013-06-08 13:43:00,68.2,56.8,29.87,East,92,0.0,5.0,67,0.00,,BKN100,0.00,454.00,VWS V14.01,2013-06-08 18:43:00,
2013-06-08 13:48:00,68.3,57.3,29.87,ENE,67,0.0,5.0,68,0.00,,BKN100,0.00,438.00,VWS V14.01,2013-06-08 18:48:00,
2013-06-08 13:53:00,68.4,57.4,29.87,East,80,2.0,5.0,68,0.00,,BKN100,0.00,758.00,VWS V14.01,2013-06-08 18:53:00,
2013-06-08 13:58:00,68.5,57.9,29.87,ESE,112,0.0,7.0,69,0.00,,BKN100,0.00,596.00,VWS V14.01,2013-06-08 18:58:00,
2013-06-08 14:03:00,68.4,57.4,29.88,East,84,2.0,4.0,68,0.00,,FEW055,0.00,378.00,VWS V14.01,2013-06-08 19:03:00,
2013-06-08 14:09:00,68.6,57.2,29.88,ESE,113,3.0,5.0,67,0.00,,FEW055,0.00,1041.00,VWS V14.01,2013-06-08 19:09:00,
2013-06-08 14:14:00,68.7,57.7,29.88,ESE,112,0.0,7.0,68,0.00,,FEW055,0.00,803.00,VWS V14.01,2013-06-08 19:14:00,
2013-06-08 14:19:00,68.7,56.5,29.88,SE,129,0.0,7.0,65,0.00,,FEW055,0.00,592.00,VWS V14.01,2013-06-08 19:19:00,
2013-06-08 14:24:00,68.9,58.3,29.88,SE,132,1.0,7.0,69,0.00,,FEW055,0.00,605.00,VWS V14.01,2013-06-08 19:24:00,
2013-06-08 14:29:00,69.2,57.4,29.88,East,92,0.0,7.0,66,0.00,,FEW055,0.00,670.00,VWS V14.01,2013-06-08 19:29:00,
2013-06-08 14:34:00,69.3,57.9,29.88,SE,136,2.0,7.0,67,0.00,,FEW055,0.00,930.00,VWS V14.01,2013-06-08 19:34:00,
2013-06-08 14:39:00,69.2,58.6,29.88,NW,316,2.0,7.0,69,0.00,,FEW055,0.00,664.00,VWS V14.01,2013-06-08 19:39:00,
2013-06-08 14:44:00,69.4,57.6,29.88,East,98,0.0,7.0,66,0.00,,FEW055,0.00,664.00,VWS V14.01,2013-06-08 19:44:00,
2013-06-08 14:49:00,69.4,57.1,29.88,East,82,1.0,7.0,65,0.00,,FEW055,0.00,631.00,VWS V14.01,2013-06-08 19:49:00,
2013-06-08 14:54:00,69.2,57.0,29.88,SE,143,1.0,7.0,65,0.00,,FEW055,0.00,353.00,VWS V14.01,2013-06-08 19:54:00,
2013-06-08 14:59:00,68.7,56.0,29.88,SE,124,1.0,7.0,64,0.00,,FEW055,0.00,325.00,VWS V14.01,2013-06-08 19:59:00,
2013-06-08 15:04:00,68.2,55.6,29.88,East,100,1.0,5.0,64,0.00,,BKN095,0.00,457.00,VWS V14.01,2013-06-08 20:04:00,
2013-06-08 15:09:00,68.1,56.3,29.88,SE,127,2.0,5.0,66,0.00,,BKN095,0.00,445.00,VWS V14.01,2013-06-08 20:09:00,
2013-06-08 15:14:00,68.1,55.9,29.88,East,93,3.0,5.0,65,0.00,,BKN095,0.00,399.00,VWS V14.01,2013-06-08 20:14:00,
2013-06-08 15:19:00,68.0,56.2,29.88,East,101,0.0,5.0,66,0.00,,BKN095,0.00,696.00,VWS V14.01,2013-06-08 20:19:00,
2013-06-08 15:24:00,68.3,56.5,29.88,ESE,111,2.0,5.0,66,0.00,,BKN095,0.00,531.00,VWS V14.01,2013-06-08 20:24:00,
2013-06-08 15:29:00,68.3,56.1,29.89,ESE,110,2.0,5.0,65,0.00,,BKN095,0.00,476.00,VWS V14.01,2013-06-08 20:29:00,
2013-06-08 15:34:00,68.2,56.0,29.89,ESE,116,2.0,5.0,65,0.00,,BKN095,0.00,413.00,VWS V14.01,2013-06-08 20:34:00,
2013-06-08 15:39:00,68.2,57.2,29.88,SSW,203,3.0,5.0,68,0.00,,BKN095,0.00,666.00,VWS V14.01,2013-06-08 20:39:00,
2013-06-08 15:44:00,68.4,56.6,29.88,ESE,117,0.0,5.0,66,0.00,,BKN095,0.00,396.00,VWS V14.01,2013-06-08 20:44:00,
2013-06-08 15:49:00,68.4,56.2,29.88,NE,50,2.0,5.0,65,0.00,,BKN095,0.00,538.00,VWS V14.01,2013-06-08 20:49:00,
2013-06-08 15:54:00,68.5,56.3,29.88,SE,133,2.0,5.0,65,0.00,,BKN095,0.00,605.00,VWS V14.01,2013-06-08 20:54:00,
2013-06-08 15:59:00,68.8,57.8,29.88,East,93,0.0,5.0,68,0.00,,BKN095,0.00,448.00,VWS V14.01,2013-06-08 20:59:00,
2013-06-08 16:04:00,68.7,56.9,29.89,South,171,0.0,7.0,66,0.00,,CLR,0.00,316.00,VWS V14.01,2013-06-08 21:04:00,
2013-06-08 16:09:00,68.5,56.7,29.89,SE,128,0.0,7.0,66,0.00,,CLR,0.00,371.00,VWS V14.01,2013-06-08 21:09:00,
2013-06-08 16:14:00,68.2,56.0,29.89,ESE,123,1.0,7.0,65,0.00,,CLR,0.00,392.00,VWS V14.01,2013-06-08 21:14:00,
2013-06-08 16:19:00,68.3,56.1,29.89,SE,133,1.0,7.0,65,0.00,,CLR,0.00,413.00,VWS V14.01,2013-06-08 21:19:00,
2013-06-08 16:24:00,68.2,56.0,29.89,East,98,2.0,7.0,65,0.00,,CLR,0.00,397.00,VWS V14.01,2013-06-08 21:24:00,
2013-06-08 16:29:00,68.3,56.5,29.88,SSW,209,1.0,7.0,66,0.00,,CLR,0.00,555.00,VWS V14.01,2013-06-08 21:29:00,
2013-06-08 16:34:00,68.9,57.9,29.88,ESE,103,1.0,3.0,68,0.00,,CLR,0.00,712.00,VWS V14.01,2013-06-08 21:34:00,
2013-06-08 16:39:00,69.1,57.3,29.88,ESE,117,0.0,3.0,66,0.00,,CLR,0.00,283.00,VWS V14.01,2013-06-08 21:39:00,
2013-06-08 16:44:00,68.8,57.0,29.89,ESE,117,0.0,3.0,66,0.00,,CLR,0.00,350.00,VWS V14.01,2013-06-08 21:44:00,
2013-06-08 16:49:00,68.5,56.7,29.88,SE,125,1.0,3.0,66,0.00,,CLR,0.00,466.00,VWS V14.01,2013-06-08 21:49:00,
2013-06-08 16:54:00,68.7,58.1,29.88,SE,125,0.0,3.0,69,0.00,,CLR,0.00,670.00,VWS V14.01,2013-06-08 21:54:00,
2013-06-08 16:59:00,69.4,57.6,29.88,ESE,117,2.0,3.0,66,0.00,,CLR,0.00,390.00,VWS V14.01,2013-06-08 21:59:00,
2013-06-08 17:04:00,69.3,58.7,29.89,East,98,0.0,2.0,69,0.00,,SCT080,0.00,359.00,VWS V14.01,2013-06-08 22:04:00,
2013-06-08 17:09:00,69.1,57.7,29.89,East,98,1.0,2.0,67,0.00,,SCT080,0.00,439.00,VWS V14.01,2013-06-08 22:09:00,
2013-06-08 17:14:00,68.9,56.7,29.89,ESE,115,0.0,3.0,65,0.00,,SCT080,0.00,364.00,VWS V14.01,2013-06-08 22:14:00,
2013-06-08 17:19:00,68.7,56.5,29.89,SE,135,0.0,3.0,65,0.00,,SCT080,0.00,258.00,VWS V14.01,2013-06-08 22:19:00,
2013-06-08 17:24:00,68.4,56.6,29.89,ESE,115,0.0,4.0,66,0.00,,SCT080,0.00,218.00,VWS V14.01,2013-06-08 22:24:00,
2013-06-08 17:29:00,68.1,56.7,29.90,ESE,115,0.0,4.0,67,0.00,,SCT080,0.00,360.00,VWS V14.01,2013-06-08 22:29:00,
2013-06-08 17:34:00,68.3,57.3,29.89,East,91,2.0,5.0,68,0.00,,SCT080,0.00,420.00,VWS V14.01,2013-06-08 22:34:00,
2013-06-08 17:39:00,68.6,56.8,29.89,ESE,106,1.0,5.0,66,0.00,,SCT080,0.00,279.00,VWS V14.01,2013-06-08 22:39:00,
2013-06-08 17:44:00,68.9,57.1,29.89,ESE,106,0.0,5.0,66,0.00,,SCT080,0.00,585.00,VWS V14.01,2013-06-08 22:44:00,
2013-06-08 17:49:00,69.4,57.6,29.89,ESE,115,1.0,5.0,66,0.00,,SCT080,0.00,526.00,VWS V14.01,2013-06-08 22:49:00,
2013-06-08 17:54:00,69.5,56.8,29.89,South,172,0.0,5.0,64,0.00,,SCT080,0.00,496.00,VWS V14.01,2013-06-08 22:54:00,
2013-06-08 17:59:00,69.8,57.5,29.89,SE,144,0.0,5.0,65,0.00,,SCT080,0.00,445.00,VWS V14.01,2013-06-08 22:59:00,
2013-06-08 18:04:00,69.8,56.7,29.89,East,100,3.0,5.0,63,0.00,,FEW060,0.00,271.00,VWS V14.01,2013-06-08 23:04:00,
2013-06-08 18:09:00,69.3,56.2,29.89,ESE,112,1.0,5.0,63,0.00,,FEW060,0.00,229.00,VWS V14.01,2013-06-08 23:09:00,
2013-06-08 18:14:00,69.3,57.0,29.89,ENE,76,1.0,5.0,65,0.00,,FEW060,0.00,431.00,VWS V14.01,2013-06-08 23:14:00,
2013-06-08 18:19:00,69.4,57.6,29.89,ENE,76,1.0,5.0,66,0.00,,FEW060,0.00,279.00,VWS V14.01,2013-06-08 23:19:00,
2013-06-08 18:24:00,69.2,56.5,29.89,ENE,77,0.0,5.0,64,0.00,,FEW060,0.00,165.00,VWS V14.01,2013-06-08 23:24:00,
2013-06-08 18:29:00,69.1,57.3,29.89,East,101,0.0,5.0,66,0.00,,FEW060,0.00,360.00,VWS V14.01,2013-06-08 23:29:00,
2013-06-08 18:34:00,69.2,57.0,29.89,East,97,1.0,3.0,65,0.00,,FEW060,0.00,311.00,VWS V14.01,2013-06-08 23:34:00,
2013-06-08 18:39:00,69.4,57.1,29.89,SSW,200,1.0,3.0,65,0.00,,FEW060,0.00,392.00,VWS V14.01,2013-06-08 23:39:00,
2013-06-08 18:44:00,69.9,58.0,29.89,SSE,151,1.0,3.0,66,0.00,,FEW060,0.00,239.00,VWS V14.01,2013-06-08 23:44:00,
2013-06-08 18:49:00,69.8,57.5,29.88,SE,129,1.0,3.0,65,0.00,,FEW060,0.00,320.00,VWS V14.01,2013-06-08 23:49:00,
2013-06-08 18:54:00,69.6,56.9,29.89,ESE,111,0.0,3.0,64,0.00,,FEW060,0.00,313.00,VWS V14.01,2013-06-08 23:54:00,
2013-06-08 18:59:00,69.6,57.3,29.89,East,82,1.0,1.0,65,0.00,,FEW060,0.00,297.00,VWS V14.01,2013-06-08 23:59:00,
2013-06-08 19:04:00,69.7,57.0,29.89,East,83,1.0,1.0,64,0.00,,CLR,0.00,265.00,VWS V14.01,2013-06-09 00:04:00,
2013-06-08 19:09:00,69.5,56.8,29.89,East,90,0.0,2.0,64,0.00,,CLR,0.00,236.00,VWS V14.01,2013-06-09 00:09:00,
2013-06-08 19:14:00,69.1,56.0,29.89,ENE,75,0.0,2.0,63,0.00,,CLR,0.00,77.00,VWS V14.01,2013-06-09 00:14:00,
2013-06-08 19:19:00,68.5,55.9,29.89,ENE,75,0.0,2.0,64,0.00,,CLR,0.00,65.00,VWS V14.01,2013-06-09 00:19:00,
2013-06-08 19:24:00,67.9,54.8,29.89,East,89,1.0,3.0,63,0.00,,CLR,0.00,141.00,VWS V14.01,2013-06-09 00:24:00,
2013-06-08 19:29:00,67.5,54.5,29.89,ESE,111,1.0,2.0,63,0.00,,CLR,0.00,67.00,VWS V14.01,2013-06-09 00:29:00,
2013-06-08 19:34:00,67.2,54.6,29.89,SE,125,1.0,2.0,64,0.00,,CLR,0.00,91.00,VWS V14.01,2013-06-09 00:34:00,
2013-06-08 19:39:00,66.9,54.8,29.90,SE,125,0.0,2.0,65,0.00,,CLR,0.00,74.00,VWS V14.01,2013-06-09 00:39:00,
2013-06-08 19:44:00,66.7,55.0,29.90,SE,125,0.0,2.0,66,0.00,,CLR,0.00,121.00,VWS V14.01,2013-06-09 00:44:00,
2013-06-08 19:49:00,66.6,55.3,29.90,SE,125,1.0,2.0,67,0.00,,CLR,0.00,105.00,VWS V14.01,2013-06-09 00:49:00,
2013-06-08 19:54:00,66.5,55.6,29.90,SE,125,0.0,2.0,68,0.00,,CLR,0.00,93.00,VWS V14.01,2013-06-09 00:54:00,
2013-06-08 19:59:00,66.2,55.3,29.90,SE,125,0.0,1.0,68,0.00,,CLR,0.00,86.00,VWS V14.01,2013-06-09 00:59:00,
2013-06-08 20:04:00,66.0,55.5,29.90,ESE,111,0.0,1.0,69,0.00,,CLR,0.00,37.00,VWS V14.01,2013-06-09 01:04:00,
2013-06-08 20:09:00,65.6,55.6,29.89,ESE,111,0.0,1.0,70,0.00,,CLR,0.00,42.00,VWS V14.01,2013-06-09 01:09:00,
2013-06-08 20:14:00,65.2,54.8,29.89,ESE,111,1.0,2.0,69,0.00,,CLR,0.00,47.00,VWS V14.01,2013-06-09 01:14:00,
2013-06-08 20:19:00,64.9,54.5,29.89,East,89,0.0,2.0,69,0.00,,CLR,0.00,39.00,VWS V14.01,2013-06-09 01:19:00,
2013-06-08 20:24:00,64.7,54.7,29.89,East,89,0.0,2.0,70,0.00,,CLR,0.00,32.00,VWS V14.01,2013-06-09 01:24:00,
2013-06-08 20:29:00,64.4,54.4,29.90,East,89,0.0,0.0,70,0.00,,CLR,0.00,23.00,VWS V14.01,2013-06-09 01:29:00,
2013-06-08 20:34:00,64.1,54.5,29.89,East,89,0.0,1.0,71,0.00,,CLR,0.00,14.00,VWS V14.01,2013-06-09 01:34:00,
2013-06-08 20:39:00,63.8,54.2,29.89,East,89,0.0,1.0,71,0.00,,CLR,0.00,9.00,VWS V14.01,2013-06-09 01:39:00,
2013-06-08 20:44:00,63.4,54.2,29.89,East,89,0.0,1.0,72,0.00,,CLR,0.00,5.00,VWS V14.01,2013-06-09 01:44:00,
2013-06-08 20:49:00,63.1,53.9,29.89,East,89,0.0,1.0,72,0.00,,CLR,0.00,0.00,VWS V14.01,2013-06-09 01:49:00,
2013-06-08 20:54:00,62.9,53.8,29.89,East,89,0.0,1.0,72,0.00,,CLR,0.00,0.00,VWS V14.01,2013-06-09 01:54:00,
2013-06-08 20:59:00,62.7,54.3,29.90,East,89,0.0,0.0,74,0.00,,CLR,0.00,0.00,VWS V14.01,2013-06-09 01:59:00,
2013-06-08 21:04:00,62.4,54.0,29.90,ENE,65,1.0,2.0,74,0.00,,CLR,0.00,0.00,VWS V14.01,2013-06-09 02:04:00,
2013-06-08 21:09:00,62.1,54.1,29.90,ENE,66,0.0,2.0,75,0.00,,CLR,0.00,0.00,VWS V14.01,2013-06-09 02:09:00,
2013-06-08 21:14:00,61.9,53.5,29.90,ENE,66,0.0,2.0,74,0.00,,CLR,0.00,0.00,VWS V14.01,2013-06-09 02:14:00,
2013-06-08 21:19:00,61.7,54.1,29.90,ENE,66,0.0,2.0,76,0.00,,CLR,0.00,0.00,VWS V14.01,2013-06-09 02:19:00,
2013-06-08 21:24:00,61.4,53.4,29.90,ENE,66,0.0,2.0,75,0.00,,CLR,0.00,0.00,VWS V14.01,2013-06-09 02:24:00,
2013-06-08 21:29:00,61.3,53.3,29.90,SW,216,0.0,0.0,75,0.00,,CLR,0.00,0.00,VWS V14.01,2013-06-09 02:29:00,
2013-06-08 21:34:00,61.1,53.5,29.90,SW,216,0.0,0.0,76,0.00,,CLR,0.00,0.00,VWS V14.01,2013-06-09 02:34:00,
2013-06-08 21:39:00,60.9,53.7,29.90,SW,216,0.0,0.0,77,0.00,,CLR,0.00,0.00,VWS V14.01,2013-06-09 02:39:00,
2013-06-08 21:44:00,60.6,53.4,29.90,SW,216,0.0,0.0,77,0.00,,CLR,0.00,0.00,VWS V14.01,2013-06-09 02:44:00,
2013-06-08 21:49:00,60.4,53.2,29.90,SW,216,0.0,0.0,77,0.00,,CLR,0.00,0.00,VWS V14.01,2013-06-09 02:49:00,
2013-06-08 21:54:00,60.3,53.8,29.90,SW,216,0.0,0.0,79,0.00,,CLR,0.00,0.00,VWS V14.01,2013-06-09 02:54:00,
2013-06-08 21:59:00,60.1,53.2,29.90,ESE,118,0.0,0.0,78,0.00,,CLR,0.00,0.00,VWS V14.01,2013-06-09 02:59:00,
2013-06-08 22:04:00,59.9,53.7,29.90,ESE,118,0.0,0.0,80,0.00,,CLR,0.00,0.00,VWS V14.01,2013-06-09 03:04:00,
2013-06-08 22:09:00,59.6,53.4,29.90,ESE,118,0.0,0.0,80,0.00,,CLR,0.00,0.00,VWS V14.01,2013-06-09 03:09:00,
2013-06-08 22:14:00,59.3,53.1,29.90,ESE,119,0.0,1.0,80,0.00,,CLR,0.00,0.00,VWS V14.01,2013-06-09 03:14:00,
2013-06-08 22:19:00,59.2,53.0,29.91,ESE,119,0.0,1.0,80,0.00,,CLR,0.00,0.00,VWS V14.01,2013-06-09 03:19:00,
2013-06-08 22:24:00,59.2,53.4,29.91,ESE,119,0.0,1.0,81,0.00,,CLR,0.00,0.00,VWS V14.01,2013-06-09 03:24:00,
2013-06-08 22:30:00,59.1,53.3,29.90,ESE,119,0.0,1.0,81,0.00,,CLR,0.00,0.00,VWS V14.01,2013-06-09 03:30:00,
2013-06-08 22:35:00,58.9,53.1,29.90,ESE,119,0.0,1.0,81,0.00,,CLR,0.00,0.00,VWS V14.01,2013-06-09 03:35:00,
2013-06-08 22:40:00,58.9,53.1,29.90,ESE,119,0.0,1.0,81,0.00,,CLR,0.00,0.00,VWS V14.01,2013-06-09 03:40:00,
2013-06-08 22:45:00,58.8,53.0,29.90,ESE,119,0.0,1.0,81,0.00,,CLR,0.00,0.00,VWS V14.01,2013-06-09 03:45:00,
2013-06-08 22:50:00,58.8,53.3,29.90,ESE,119,0.0,1.0,82,0.00,,CLR,0.00,0.00,VWS V14.01,2013-06-09 03:50:00,
2013-06-08 22:55:00,58.7,52.9,29.90,ESE,119,0.0,1.0,81,0.00,,CLR,0.00,0.00,VWS V14.01,2013-06-09 03:55:00,
2013-06-08 23:00:00,58.7,52.6,29.90,ESE,119,0.0,0.0,80,0.00,,CLR,0.00,0.00,VWS V14.01,2013-06-09 04:00:00,
2013-06-08 23:01:00,58.7,52.6,29.90,ESE,119,0.0,1.0,80,0.00,,CLR,0.00,0.00,VWS V14.01,2013-06-09 04:01:00,
2013-06-08 23:02:00,58.7,52.6,29.90,ESE,119,0.0,1.0,80,0.00,,CLR,0.00,0.00,VWS V14.01,2013-06-09 04:02:00,
2013-06-08 23:07:00,58.8,52.7,29.90,ESE,119,0.0,1.0,80,0.00,,CLR,0.00,0.00,VWS V14.01,2013-06-09 04:07:00,
2013-06-08 23:12:00,58.8,52.7,29.90,ESE,119,0.0,1.0,80,0.00,,CLR,0.00,0.00,VWS V14.01,2013-06-09 04:12:00,
2013-06-08 23:17:00,58.9,52.8,29.91,ESE,119,0.0,1.0,80,0.00,,CLR,0.00,0.00,VWS V14.01,2013-06-09 04:17:00,
2013-06-08 23:22:00,58.9,52.8,29.91,ESE,119,0.0,1.0,80,0.00,,CLR,0.00,0.00,VWS V14.01,2013-06-09 04:22:00,
2013-06-08 23:27:00,58.9,52.4,29.91,ESE,119,0.0,2.0,79,0.00,,CLR,0.00,0.00,VWS V14.01,2013-06-09 04:27:00,
2013-06-08 23:32:00,58.9,52.4,29.91,ESE,119,0.0,1.0,79,0.00,,CLR,0.00,0.00,VWS V14.01,2013-06-09 04:32:00,
2013-06-08 23:37:00,58.8,52.7,29.91,SE,134,0.0,2.0,80,0.00,,CLR,0.00,0.00,VWS V14.01,2013-06-09 04:37:00,
2013-06-08 23:42:00,58.7,52.6,29.91,SE,134,0.0,2.0,80,0.00,,CLR,0.00,0.00,VWS V14.01,2013-06-09 04:42:00,
2013-06-08 23:47:00,58.7,52.6,29.91,SE,134,0.0,2.0,80,0.00,,CLR,0.00,0.00,VWS V14.01,2013-06-09 04:47:00,
2013-06-08 23:52:00,58.6,52.5,29.91,SE,134,0.0,2.0,80,0.00,,CLR,0.00,0.00,VWS V14.01,2013-06-09 04:52:00,
2013-06-08 23:57:00,58.5,52.4,29.91,ESE,111,0.0,2.0,80,0.00,,CLR,0.00,0.00,VWS V14.01,2013-06-09 04:57:00,